• Processing (Info)

  • MPEC 2019-G28 : 2019 FC3

    The following Minor Planet Electronic Circular may be linked-to from your own Web pages, but must not otherwise be redistributed electronically.

    A form allowing access to any MPEC is at the bottom of this page.


    Read MPEC 2019-G27 Read MPEC 2019-G29


    M.P.E.C. 2019-G28                                Issued 2019 Apr. 4, 03:14 UT
    
         The Minor Planet Electronic Circulars contain information on unusual
             minor planets and routine data on comets.  They are published
        on behalf of Division F of the International Astronomical Union by the
              Minor Planet Center, Smithsonian Astrophysical Observatory,
                              Cambridge, MA 02138, U.S.A.
    
                 Prepared using the Tamkin Foundation Computer Network
    
                                  MPC@CFA.HARVARD.EDU
                URL https://www.minorplanetcenter.net/    ISSN 1523-6714
    
                                       2019 FC3
    
    Observations:
         K19F03C* C2019 03 31.44844 14 25 11.85 -16 16 44.5          20.4 GVEG028G96
         K19F03C  C2019 03 31.45272 14 25 12.83 -16 16 53.1          20.7 GVEG028G96
         K19F03C  C2019 03 31.45700 14 25 13.74 -16 17 00.5          19.6 GVEG028G96
         K19F03C  C2019 03 31.46129 14 25 14.69 -16 17 11.9          19.5 GVEG028G96
         K19F03C  C2019 03 31.50768 14 25 25.17 -16 18 45.1          20.5 GVEG028I52
         K19F03C  C2019 03 31.50923 14 25 25.52 -16 18 48.8                VEG028I52
         K19F03C  C2019 03 31.50999 14 25 25.73 -16 18 50.2                VEG028I52
         K19F03C pC2019 03 31.99969514 27 26.60 -16 36 12.7          20.4 GVEG028L01
         K19F03C KC2019 04 01.00203414 27 27.18 -16 36 18.3          20.4 GVEG028L01
         K19F03C KC2019 04 01.00359314 27 27.53 -16 36 21.8          20.4 GVEG028L01
         K19F03C  C2019 04 01.27923 14 28 37.76 -16 46 17.3          21.1 GVEG028I52
         K19F03C  C2019 04 01.28145 14 28 38.33 -16 46 21.1          20.8 GVEG028I52
         K19F03C  C2019 04 01.28256 14 28 38.54 -16 46 24.8          21.2 GVEG028I52
         K19F03C KC2019 04 01.34250 14 28 52.85 -16 48 37.2                oEG028711
         K19F03C KC2019 04 01.34578 14 28 53.68 -16 48 44.6                oEG028711
         K19F03C KC2019 04 01.34903 14 28 54.44 -16 48 52.2                oEG028711
         K19F03C KC2019 04 01.38987214 29 03.74 -16 50 26.0          20.6 VuEG028H21
         K19F03C KC2019 04 01.39237014 29 04.32 -16 50 32.2          20.5 VuEG028H21
         K19F03C KC2019 04 01.39485714 29 04.90 -16 50 37.1          20.8 VuEG028H21
         K19F03C KC2019 04 01.54215214 29 44.85 -16 55 16.3          19.6 GVEG028474
         K19F03C KC2019 04 01.54919414 29 46.52 -16 55 30.9          20.4 GVEG028474
         K19F03C KC2019 04 01.55271414 29 47.45 -16 55 39.4          19.7 GVEG028474
         K19F03C HC2019 04 02.35467 14 33 24.58 -17 27 38.3          20.2 RoEG028691
         K19F03C HC2019 04 02.36078 14 33 26.21 -17 27 52.9          20.2 RoEG028691
         K19F03C  C2019 04 02.36542 14 33 27.42 -17 28 04.8          20.1 GVEG028I52
         K19F03C HC2019 04 02.36689 14 33 27.82 -17 28 07.4          20.4 RoEG028691
         K19F03C  C2019 04 02.36925 14 33 28.40 -17 28 13.4          20.4 GVEG028I52
         K19F03C  C2019 04 02.37342 14 33 29.55 -17 28 24.0          19.8 GVEG028I52
         K19F03C  C2019 04 02.37419 14 33 29.75 -17 28 25.7          20.5 GVEG028I52
         K19F03C KC2019 04 02.56090314 34 23.24 -17 35 08.7          20.2 GVEG028474
         K19F03C KC2019 04 02.56326214 34 23.92 -17 35 14.5          20.7 GVEG028474
         K19F03C KC2019 04 02.56798214 34 25.25 -17 35 25.5          20.5 GVEG028474
         K19F03C  C2019 04 03.48942 14 39 00.43 -18 15 26.3          21.2 GVEG028I52
         K19F03C  C2019 04 03.49160 14 39 01.16 -18 15 33.2                VEG028I52
         K19F03C  C2019 04 03.49596 14 39 02.47 -18 15 43.8          20.2 GVEG028I52
    
    Observer details:
    474 Mount John Observatory, Lake Tekapo.  Observers A. C. Gilmore,
        P. M. Kilmartin.  Measurer P. M. Kilmartin.  1.0-m f/7.7 reflector + CCD.
    691 Steward Observatory, Kitt Peak-Spacewatch.  Observer R. A. Mastaler.
        0.9-m f/3 reflector + CCD.
    711 McDonald Observatory, Fort Davis.  Observer J. G. Ries.  2.1-m reflector
        + CCD + focal reducer.
    G96 Mt. Lemmon Survey.  Observer D. C. Fuls.  Measurers B. M. Africano,
        E. J. Christensen, G. A. Farneth, D. C. Fuls, A. R. Gibbs, A. D. Grauer,
        H. Groeller, R. A. Kowalski, S. M. Larson, G. J. Leonard, T. A. Pruyne,
        R. L. Seaman, F. C. Shelly.  1.5-m reflector + 10K CCD.
    H21 Astronomical Research Observatory, Westfield.  Observer R. Holmes.
        Measurers S. Foglia, L. Buzzi, T. Linder, R. Holmes.  0.61-m f/4.5
        astrograph + CCD.
    I52 Steward Observatory, Mt. Lemmon Station.  Observers H. Groeller,
        R. A. Kowalski, G. J. Leonard.  Measurers B. M. Africano,
        E. J. Christensen, G. A. Farneth, D. C. Fuls, A. R. Gibbs, A. D. Grauer,
        H. Groeller, R. A. Kowalski, S. M. Larson, G. J. Leonard, T. A. Pruyne,
        R. L. Seaman, F. C. Shelly.  1.0-m reflector + CCD.
    L01 Visnjan Observatory, Tican.  Observers K. Korlevic, F. Valentine.
        Measurer K. Korlevic.  1.0-m f/2.9 reflector + CCD.
    
    Orbital elements:
    2019 FC3                                                 Earth MOID = 0.0194 AU
    Epoch 2019 Apr. 27.0 TT = JDT 2458600.5                 MPC
    M 352.04525              (2000.0)            P               Q
    n   0.23660483     Peri.  268.02552     +0.09181447     +0.99576259
    a   2.5889300      Node     7.24863     -0.89646402     +0.08492686
    e   0.6908784      Incl.    2.35897     -0.43350012     +0.03527460
    P   4.17           H   22.4           G   0.15           U   8
    Residuals in seconds of arc
    190331 G96  0.1+  0.2+    190401 I52  0.9-  0.8-    190402 I52  0.3+  0.4-
    190331 G96  0.5+  0.3+    190401 711  0.1+  0.5+    190402 691  0.1-  0.3+
    190331 G96 (0.2-  1.7+)   190401 711  0.6+  0.4+    190402 I52  0.3-  0.3+
    190331 G96  0.4-  1.0-    190401 711  0.3+  0.0     190402 I52  0.3+  0.2-
    190331 I52  0.1-  0.3+    190401 H21  0.0   0.0     190402 I52  0.2+  0.0
    190331 I52  0.1-  0.2-    190401 H21  0.4-  0.7-    190402 474  0.4-  0.2-
    190331 I52  0.4+  0.1-    190401 H21  0.8-  0.2-    190402 474  0.1+  0.2-
    190331 L01  0.1-  0.8+    190401 474  0.6+  0.7-    190402 474  0.6+  0.4+
    190401 L01  0.3+  0.3+    190401 474  0.5-  0.7+    190403 I52  0.7-  0.5+
    190401 L01  0.0   0.2+    190401 474  0.2+  0.2+    190403 I52  0.3+  0.7-
    190401 I52  0.5-  0.7-    190402 691  0.1+  0.2-    190403 I52  0.2+  0.1+
    190401 I52  0.0   0.5+    190402 691  0.1+  0.0
    
    Ephemeris:
    2019 FC3                 a,e,i = 2.59, 0.69, 2                   q = 0.8003
    Date    TT    R. A. (2000) Decl.     Delta      r     Elong.  Phase     V
    2019 03 05    13 31 31.5 -08 33 57   0.5722  1.4744   139.5    25.9    23.2
    ...
    2019 03 20    13 54 23.8 -11 43 32   0.3669  1.3214   148.1    23.5    21.9
    ...
    2019 03 28    14 13 22.4 -14 31 48   0.2695  1.2400   150.7    23.2    21.1
    ...
    2019 04 03    14 36 31.3 -17 53 42   0.2024  1.1796   150.2    24.9    20.4
    2019 04 04    14 41 47.2 -18 37 57   0.1918  1.1697   149.8    25.5    20.3
    2019 04 05    14 47 38.6 -19 26 17   0.1814  1.1597   149.2    26.2    20.2
    ...
    2019 04 11    15 43 21.5 -26 08 57   0.1245  1.1010   140.6    35.3    19.5
    ...
    2019 04 19    19 11 09.8 -35 22 12   0.08194 1.0260   103.2    72.3    19.6
    ...
    2019 05 04    23 51 55.6 -10 04 44   0.1767  0.9033    49.4   122.0    23.4
    
    A. U. Tomatic                (C) Copyright 2019 MPC           M.P.E.C. 2019-G28
    

    Read MPEC 2019-G27 Read MPEC 2019-G29


    MPEC number:

    Enter an MPEC number in one of the following forms:

    • 1997-B01 (the full form)
    • J97B01 (the packed version of the full form)
    • B01 (the abbreviated form)